Philadelphia, PA

8:58 PM EST on November 19, 2019 (GMT -0500)
Philadelphia International

Weather History for KPHL - May, 2019

Change the Weather History Date:

Tuesday, May 7, 2019

  Actual Average Record
Temperature  
Mean Temperature 65 °F 61 °F  
Max Temperature 77 °F 71 °F 94 °F (1930)
Min Temperature 53 °F 51 °F 35 °F (1970)
Degree Days  
Heating Degree Days 0 5  
Month to date heating degree days 20 41  
Since 1 July heating degree days 4305 4531  
Cooling Degree Days 0 1  
Month to date cooling degree days 4 7  
Year to date cooling degree days 28 20  
Growing Degree Days 15 (Base 50)    
Moisture  
Dew Point 55 °F    
Average Humidity 73    
Maximum Humidity 89    
Minimum Humidity 56    
Precipitation  
Precipitation 0.14 in 0.11 in 2.69 in (1908)
Month to date precipitation 1.20 0.77  
Year to date precipitation 15.26 13.80  
Snow  
Snow 0.00 in 0.00 in 0.00 in ()
Month to date snowfall 0.0 0.0  
Since 1 July snowfall 17.1 22.4  
Snow Depth 0.00 in    
Sea Level Pressure  
Sea Level Pressure 30.15 in    
Wind  
Wind Speed 6 mph (South)    
Max Wind Speed 13 mph    
Max Gust Speed 17 mph    
Visibility 10 miles    
Events Rain    
T = Trace of Precipitation, MM = Missing Value Source: NWS Daily Summary

Daily Weather History Graph

Daily Weather History Graph

Search for Another Location

Airport or City:

Astronomy

May. 07, 2019 Rise Set
Actual Time 5:54 AM EDT 8:01 PM EDT
Civil Twilight 5:24 AM EDT 8:31 PM EDT
Nautical Twilight 4:48 AM EDT 9:07 PM EDT
Astronomical Twilight 4:08 AM EDT 9:47 PM EDT
Moon 7:58 AM EDT (5/7) 10:59 PM EDT (5/7)
Length of Visible Light 15h 06m
Length of Day
14h 06m
Waxing Crescent, 8% of the Moon is Illuminated
May 7
Waxing Crescent
May 11
First Quarter
May 18
Full
May 26
Last Quarter
Jun 3
New

Hourly Weather History & Observations

Time (EDT) Temp. Dew Point Humidity Pressure Visibility Wind Dir Wind Speed Gust Speed Precip Events Conditions
12:54 AM 55.0 °F 48.9 °F 80% 30.14 in 10.0 mi SSE 3.5 mph - N/A   Scattered Clouds
1:54 AM 53.1 °F 48.0 °F 83% 30.14 in 10.0 mi ESE 4.6 mph - N/A   Overcast
2:54 AM 54.0 °F 48.9 °F 83% 30.15 in 10.0 mi Calm Calm - N/A   Overcast
3:26 AM 54.0 °F 48.9 °F 83% 30.16 in 10.0 mi Calm Calm - N/A   Mostly Cloudy
3:54 AM 54.0 °F 48.9 °F 83% 30.15 in 10.0 mi East 4.6 mph - N/A   Mostly Cloudy
4:54 AM 53.1 °F 48.9 °F 86% 30.14 in 10.0 mi ESE 3.5 mph - N/A   Overcast
5:54 AM 53.1 °F 48.9 °F 86% 30.15 in 10.0 mi ESE 4.6 mph - N/A   Mostly Cloudy
6:54 AM 54.0 °F 50.0 °F 86% 30.16 in 10.0 mi ESE 5.8 mph - N/A   Mostly Cloudy
7:46 AM 55.0 °F 51.1 °F 86% 30.18 in 10.0 mi Calm Calm - N/A   Mostly Cloudy
7:54 AM 55.9 °F 51.1 °F 84% 30.18 in 10.0 mi Calm Calm - N/A   Mostly Cloudy
8:54 AM 57.9 °F 52.0 °F 81% 30.19 in 10.0 mi South 4.6 mph - N/A   Mostly Cloudy
9:54 AM 60.1 °F 54.0 °F 80% 30.19 in 10.0 mi South 5.8 mph - N/A   Mostly Cloudy
10:54 AM 62.1 °F 55.9 °F 80% 30.19 in 10.0 mi SSE 4.6 mph - N/A   Overcast
11:43 AM 64.0 °F 55.9 °F 75% 30.20 in 10.0 mi Variable 4.6 mph - N/A   Overcast
11:54 AM 64.0 °F 55.9 °F 75% 30.20 in 10.0 mi WSW 4.6 mph - N/A   Overcast
12:54 PM 64.9 °F 57.0 °F 75% 30.19 in 10.0 mi WSW 5.8 mph - N/A   Overcast
1:33 PM 66.9 °F 57.9 °F 73% 30.17 in 10.0 mi SW 9.2 mph - N/A   Scattered Clouds
1:54 PM 68.0 °F 57.9 °F 70% 30.17 in 10.0 mi WSW 6.9 mph - N/A   Scattered Clouds
2:54 PM 71.1 °F 59.0 °F 66% 30.15 in 10.0 mi WSW 5.8 mph - N/A   Scattered Clouds
3:54 PM 73.9 °F 61.0 °F 64% 30.12 in 10.0 mi West 6.9 mph - N/A   Scattered Clouds
4:54 PM 75.9 °F 60.1 °F 58% 30.09 in 10.0 mi SW 11.5 mph - N/A   Scattered Clouds
5:54 PM 77.0 °F 60.1 °F 56% 30.09 in 10.0 mi WSW 9.2 mph - N/A   Scattered Clouds
6:54 PM 75.0 °F 60.1 °F 60% 30.08 in 10.0 mi South 10.4 mph - N/A   Mostly Cloudy
7:54 PM 72.0 °F 57.9 °F 61% 30.08 in 10.0 mi South 8.1 mph - N/A   Mostly Cloudy
8:54 PM 69.1 °F 57.0 °F 65% 30.09 in 10.0 mi South 9.2 mph - N/A   Mostly Cloudy
9:54 PM 66.9 °F 57.0 °F 70% 30.10 in 10.0 mi South 5.8 mph - N/A   Mostly Cloudy
10:54 PM 66.9 °F 57.9 °F 73% 30.13 in 10.0 mi NE 5.8 mph - N/A   Overcast
11:49 PM 64.4 °F 57.2 °F 77% 30.14 in 8.0 mi ENE 6.9 mph - 0.00 in Rain Light Rain
11:54 PM 64.0 °F 59.0 °F 84% 30.13 in 8.0 mi ENE 6.9 mph - 0.00 in Rain Light Rain